Home > Weather > Chemnitz > Past weeks

Flag for Germany Weather for the Past 2 Weeks in Chemnitz, Saxony, Germany

Now
50 °F

Clear.


Feels Like: 50 °F
Forecast: 48 / 69 °F
Wind: 1 mph from North

Location: Dresden-Klotzsche

Current Time: May 6, 2016 at 2:47:28 AM

Latest Report: May 6, 2016 at 2:20 AM


Visibility: 10 mi

Pressure: 30.21 "Hg

Humidity: 76%

Dew Point: 43 °F

Location of ChemnitzLocation

Historic Weather in Chemnitz — Graph

°F

Chemnitz Temperature Yesterday

Maximum temperature yesterday: 63 °F (at 3:50 PM)
Minimum temperature yesterday: 39 °F (at 5:20 AM)
Average temperature yesterday: 52 °F

High & Low Weather Summary for the Past Weeks

 TemperatureHumidityPressure
High64 °F (Apr 30, 3:20 PM)100% (May 3, 4:20 AM)30.36 "Hg (May 3, 4:20 AM)
Low32 °F (Apr 24, 5:50 AM)25% (Apr 30, 2:20 PM)29.47 "Hg (Apr 26, 7:50 AM)
Average46 °F67%30.00 "Hg
* Reported Apr 21 1:20 AM — May 6 1:50 AM, Chemnitz, Weather by CustomWeather, © 2016

Note: Actual official high and low records may vary slightly from our data, if they occured in-between our weather recording intervals... More about our weather records

Advertising

Chemnitz Weather History for the Previous 24 Hours

Scroll right to see more
 ConditionsComfort  
Time TempWeatherWind HumidityBarometerVisibility
1:50 AM
Fri, May 6
50 °FClear.2 mph76%30.21 "Hg10 mi
1:20 AM50 °FClear.2 mph76%30.21 "Hg10 mi
12:50 AM50 °FClear.3 mph76%30.21 "Hg10 mi
12:20 AM52 °FClear.3 mph72%30.21 "Hg10 mi
11:50 PM
Thu, May 5
52 °FClear.2 mph77%30.21 "Hg10 mi
11:20 PM54 °FClear.2 mph72%30.21 "Hg10 mi
10:50 PM55 °FClear.5 mph67%30.21 "Hg10 mi
10:20 PM54 °FClear.5 mph72%30.21 "Hg10 mi
9:50 PM55 °FClear.7 mph72%30.21 "Hg10 mi
9:20 PM55 °FSunny.6 mph67%30.21 "Hg10 mi
8:50 PM57 °FSunny.5 mph63%30.21 "Hg10 mi
8:20 PM59 °FSunny.6 mph59%30.21 "Hg10 mi
7:50 PM59 °FSunny.7 mph59%30.21 "Hg10 mi
7:20 PM61 °FSunny.10 mph55%30.24 "Hg10 mi
6:50 PM63 °FPassing clouds.10 mph52%30.24 "HgN/A
6:20 PM63 °FPassing clouds.9 mph52%30.24 "HgN/A
5:50 PM63 °FPassing clouds.10 mph52%30.24 "HgN/A
5:20 PM63 °FPassing clouds.12 mph52%30.27 "HgN/A
4:50 PM63 °FPassing clouds.10 mph52%30.27 "HgN/A
4:20 PM63 °FPassing clouds.12 mph52%30.27 "HgN/A
3:50 PM63 °FPassing clouds.10 mph52%30.27 "HgN/A
3:20 PM61 °FPassing clouds.9 mph52%30.30 "HgN/A
2:50 PM61 °FPassing clouds.7 mph59%30.30 "HgN/A
2:20 PM59 °FPassing clouds.8 mph63%30.30 "HgN/A
1:50 PM57 °FPassing clouds.7 mph67%30.33 "HgN/A
1:20 PM55 °FPassing clouds.7 mph67%30.33 "HgN/A
12:50 PM54 °FScattered clouds.5 mph67%30.33 "HgN/A
12:20 PM52 °FPartly sunny.2 mph72%30.36 "HgN/A
11:50 AM50 °FPartly sunny.5 mph71%30.36 "HgN/A
11:20 AM50 °FPartly sunny.2 mph76%30.36 "HgN/A
10:50 AM50 °FBroken clouds.1 mph76%30.36 "HgN/A
10:20 AM48 °FPartly sunny.1 mph82%30.36 "HgN/A
9:50 AM48 °FPartly sunny.1 mph87%30.36 "HgN/A
9:20 AM46 °FSunny.1 mph87%30.36 "Hg10 mi
8:50 AM46 °FSunny.2 mph87%30.36 "Hg10 mi
8:20 AM45 °FSunny.1 mph93%30.36 "Hg10 mi
7:50 AM45 °FSunny.1 mph100%30.36 "Hg10 mi
7:20 AM43 °FFog.1 mph100%30.36 "HgN/A
6:50 AM43 °FFog.2 mph100%30.36 "HgN/A
6:20 AM43 °FFog.1 mph93%30.36 "HgN/A
5:50 AM41 °FFog.2 mph100%30.36 "HgN/A
5:20 AM39 °FFog.1 mph100%30.36 "HgN/A
4:50 AM43 °FFog.No wind93%30.36 "HgN/A
4:20 AM43 °FFog.1 mph93%30.36 "HgN/A
3:50 AM43 °FClear.1 mph93%30.36 "Hg10 mi
3:20 AM45 °FClear.2 mph93%30.36 "Hg10 mi
2:50 AM45 °FClear.2 mph93%30.36 "Hg10 mi
2:20 AM45 °FClear.5 mph93%30.36 "Hg10 mi
Weather by CustomWeather, © 2016

See weather overviewHow to use our weather pages